FENGYUN 1C DEB

Satellite information

Favourite Embed

Satellite Type and Status

DEBRISIN ORBIT

Key statistics

Satellite FENGYUN 1C DEB at a glance.

Uptime

9555

Days in orbit

Revolutions

≈ 14.1

Per day

Orbit

SSO

Sun Synchronous Orbit

Inclination

98.8

Latest

Satellite identification and parameters

Extended collection of information and parameters for FENGYUN 1C DEB.

Object identification

Identified? True

Debris? True

Object name: FENGYUN 1C DEB

International designator: 1999-025CUR

Object number (NORAD): 32195

Object ID (CCSDS): 32195

Country: PEOPLES REPUBLIC OF CHINA (PRC)

Current information (Y/N): Y

RCS size: SMALL

Orbital parameters

Period: 102.264 minutes

Inclination: 98.7705 deg

SMA: 7243.969 km

Apoapsis: 917.186 km

Periapsis: 814.483 km

RAAN: 186.7698 deg

Eccentricy: 0.0070889

Argument of periapsis: 51.5962 deg

Mean anomaly: 309.1545 deg

Mean motion: 14.08114104 rev/day

Mean motion (dot): 0.00000361 rev/day2

B* drag term: 0.00023142 1/REarth

Two-line elements (TLE)

Creation date: June 29, 2025, 2:41 a.m.

Reference frame: TEME

Reference center: EARTH

Epoch: June 28, 2025, 6:35 p.m. UTC

TLE line 0: 0 FENGYUN 1C DEB

TLE line 1: 1 32195U 99025CUR 25179.77449081 .00000361 00000-0 23142-3 0 9994

TLE line 2: 2 32195 98.7705 186.7698 0070889 51.5962 309.1545 14.08114104616322

Live tracking on map

Real-time ground track for satellite FENGYUN 1C DEB.

In-orbit conjunctions

A list of the most updated potential collisions computed for object FENGYUN 1C DEB.

Target Orbit TCA Probability of collision Miss distance Type
SL-12 R/B(AUX MOTOR) LEO 2025-01-01 22:20:54 0.0001601714 478.0 (m) ROCKET BODY
CZ-6A DEB SSO 2024-11-09 20:12:57 0.0002643585 687.0 (m) DEBRIS

Associated space launch

Chinese polar orbiting meteorological satellite

FENGYUN 1C DEB was lifted into orbit during the mission ‘Long March 4B | Feng Yun 1C’, on board a Long March 4B space rocket.

The launch took place on May 10, 1999, 1:33 a.m. from Launch Complex 7.

For more information about the launch, click the button.

Launch to space Long March 4B | Feng Yun 1C
Long March 4B | Feng Yun 1C

Agency: N/A

Status: Launch Successful

Launch date: May 10, 1999, 1:33 a.m. UTC

Rocket: Long March 4B

Launch pad: Launch Complex 7

Location: Taiyuan Satellite Launch Center, People's Republic of China

...

Latest news about this satellite

There are no fresh news available about this satellite. Check back as we update our databases every day.


Newsletter sign-up

Weekly statistics, charts and insights to help you stay on top of the space industry.